• In Latvia
  • List of Countries
  • For 7 days
  • Water Temperature
  • Satellite Maps
  • Weather Map
  • Weather Widgets
  • user-avatar
    Login

    Hourly Weather Iecava

    Today, 24 September, Monday

    Time Temperature Precipitation Wind Pressure Humidity
    00:00 +8°C° 0 mm 3 mps 750 mmHg 88%
    01:00 +8°C° 0 mm 3 mps 750 mmHg 89%
    02:00 +8°C° 0 mm 2 mps 750 mmHg 91%
    03:00 +8°C° 0 mm 2 mps 750 mmHg 91%
    04:00 +8°C° 0 mm 2 mps 750 mmHg 92%
    05:00 +8°C° 0 mm 2 mps 750 mmHg 93%
    06:00 +8°C° 0 mm 2 mps 750 mmHg 91%
    07:00 +9°C° 0 mm 2 mps 750 mmHg 89%
    08:00 +9°C° 0 mm 2 mps 750 mmHg 87%
    09:00 +10°C° 0.1 mm 2 mps 750 mmHg 80%
    10:00 +11°C° 0.1 mm 3 mps 750 mmHg 73%
    11:00 +13°C° 0.1 mm 4 mps 750 mmHg 67%
    12:00 +13°C° 0.1 mm 5 mps 751 mmHg 64%
    13:00 +13°C° 0.1 mm 5 mps 751 mmHg 61%
    14:00 +13°C° 0.1 mm 6 mps 751 mmHg 58%
    15:00 +11°C° 0.1 mm 6 mps 752 mmHg 60%
    16:00 +11°C° 0.1 mm 6 mps 752 mmHg 61%
    17:00 +10°C° 0.1 mm 6 mps 753 mmHg 63%
    18:00 +9°C° 0 mm 5 mps 754 mmHg 66%
    19:00 +8°C° 0 mm 5 mps 754 mmHg 69%
    20:00 +7°C° 0 mm 5 mps 755 mmHg 73%
    21:00 +7°C° 0 mm 5 mps 756 mmHg 73%
    22:00 +7°C° 0 mm 5 mps 756 mmHg 73%
    23:00 +6°C° 0 mm 5 mps 757 mmHg 73%

    Tomorrow, 25 September, Tuesday

    Time Temperature Precipitation Wind Pressure Humidity
    00:00 +6°C° 0 mm 5 mps 757 mmHg 73%
    01:00 +6°C° 0 mm 5 mps 758 mmHg 72%
    02:00 +5°C° 0 mm 5 mps 758 mmHg 71%
    03:00 +5°C° 0.1 mm 5 mps 759 mmHg 71%
    04:00 +5°C° 0.1 mm 5 mps 759 mmHg 71%
    05:00 +5°C° 0.1 mm 5 mps 760 mmHg 71%
    06:00 +6°C° 0.1 mm 5 mps 761 mmHg 69%
    07:00 +6°C° 0.1 mm 5 mps 761 mmHg 67%
    08:00 +7°C° 0.1 mm 5 mps 762 mmHg 65%
    09:00 +8°C° 0.1 mm 6 mps 763 mmHg 59%
    10:00 +8°C° 0.1 mm 6 mps 763 mmHg 52%
    11:00 +9°C° 0.1 mm 7 mps 764 mmHg 46%
    12:00 +10°C° 0 mm 7 mps 765 mmHg 45%
    13:00 +10°C° 0 mm 7 mps 765 mmHg 44%
    14:00 +10°C° 0 mm 7 mps 765 mmHg 43%
    15:00 +10°C° 0 mm 6 mps 766 mmHg 47%
    16:00 +9°C° 0 mm 6 mps 766 mmHg 51%
    17:00 +9°C° 0 mm 5 mps 767 mmHg 54%
    18:00 +8°C° 0 mm 5 mps 767 mmHg 61%
    19:00 +7°C° 0 mm 4 mps 768 mmHg 67%
    20:00 +6°C° 0 mm 4 mps 768 mmHg 73%
    21:00 +5°C° 0 mm 3 mps 769 mmHg 73%
    22:00 +5°C° 0 mm 3 mps 769 mmHg 74%
    23:00 +5°C° 0 mm 3 mps 769 mmHg 74%

    Day after tomorrow, 26 September, Wednesday

    Time Temperature Precipitation Wind Pressure Humidity
    00:00 +5°C° 0 mm 3 mps 769 mmHg 73%
    01:00 +4°C° 0 mm 3 mps 769 mmHg 72%
    02:00 +4°C° 0 mm 4 mps 769 mmHg 71%
    03:00 +5°C° 0 mm 4 mps 768 mmHg 71%
    04:00 +5°C° 0 mm 4 mps 768 mmHg 70%
    05:00 +5°C° 0 mm 4 mps 768 mmHg 69%
    06:00 +6°C° 0 mm 5 mps 767 mmHg 69%
    07:00 +7°C° 0 mm 5 mps 767 mmHg 70%
    08:00 +8°C° 0 mm 6 mps 766 mmHg 70%
    09:00 +9°C° 0.4 mm 6 mps 765 mmHg 74%
    10:00 +9°C° 0.4 mm 7 mps 765 mmHg 78%
    11:00 +9°C° 0.4 mm 7 mps 764 mmHg 83%
    12:00 +9°C° 1.4 mm 8 mps 763 mmHg 84%
    13:00 +9°C° 1.4 mm 8 mps 762 mmHg 85%
    14:00 +8°C° 1.4 mm 9 mps 761 mmHg 87%
    15:00 +8°C° 1.9 mm 9 mps 760 mmHg 87%
    16:00 +8°C° 1.9 mm 9 mps 759 mmHg 88%
    17:00 +10°C° 1.9 mm 9 mps 758 mmHg 88%
    18:00 +10°C° 1.1 mm 8 mps 757 mmHg 89%
    19:00 +11°C° 1.1 mm 8 mps 757 mmHg 90%
    20:00 +11°C° 1.1 mm 7 mps 756 mmHg 91%
    21:00 +11°C° 0.6 mm 7 mps 756 mmHg 91%
    22:00 +13°C° 0.6 mm 6 mps 756 mmHg 91%
    23:00 +13°C° 0.6 mm 5 mps 755 mmHg 91%

    27 September, Thursday

    Time Temperature Precipitation Wind Pressure Humidity
    00:00 +13°C° 0.2 mm 5 mps 755 mmHg 91%
    01:00 +12°C° 0.2 mm 4 mps 755 mmHg 92%
    02:00 +12°C° 0.2 mm 3 mps 755 mmHg 92%
    03:00 +12°C° 0 mm 3 mps 755 mmHg 92%
    04:00 +11°C° 0 mm 3 mps 755 mmHg 92%
    05:00 +11°C° 0 mm 3 mps 755 mmHg 92%
    06:00 +11°C° 0 mm 3 mps 755 mmHg 91%
    07:00 +12°C° 0 mm 4 mps 755 mmHg 90%
    08:00 +12°C° 0 mm 4 mps 755 mmHg 89%
    09:00 +13°C° 0 mm 4 mps 755 mmHg 80%
    10:00 +14°C° 0 mm 4 mps 756 mmHg 72%
    11:00 +15°C° 0 mm 4 mps 756 mmHg 64%
    12:00 +15°C° 0 mm 4 mps 756 mmHg 63%
    13:00 +15°C° 0 mm 4 mps 756 mmHg 62%
    14:00 +16°C° 0 mm 3 mps 756 mmHg 60%
    15:00 +14°C° 0.1 mm 3 mps 757 mmHg 66%
    16:00 +14°C° 0.1 mm 2 mps 757 mmHg 71%
    17:00 +14°C° 0.1 mm 2 mps 757 mmHg 77%
    18:00 +13°C° 0 mm 2 mps 757 mmHg 81%
    19:00 +12°C° 0 mm 2 mps 757 mmHg 85%
    20:00 +12°C° 0 mm 2 mps 757 mmHg 88%
    21:00 +12°C° 0 mm 2 mps 757 mmHg 90%
    22:00 +12°C° 0 mm 2 mps 757 mmHg 92%
    23:00 +12°C° 0 mm 2 mps 757 mmHg 94%

    28 September, Friday

    Time Temperature Precipitation Wind Pressure Humidity
    00:00 +11°C° 0.3 mm 4 mps 756 mmHg 93%
    01:00 +12°C° 0.3 mm 5 mps 754 mmHg 92%
    02:00 +12°C° 0.3 mm 7 mps 753 mmHg 91%
    03:00 +14°C° 0.2 mm 7 mps 752 mmHg 89%
    04:00 +14°C° 0.2 mm 7 mps 751 mmHg 88%
    05:00 +14°C° 0.2 mm 7 mps 750 mmHg 87%
    06:00 +14°C° 0.3 mm 7 mps 750 mmHg 85%
    07:00 +13°C° 0.3 mm 8 mps 749 mmHg 84%
    08:00 +13°C° 0.3 mm 8 mps 748 mmHg 83%
    09:00 +13°C° 0.3 mm 8 mps 749 mmHg 81%
    10:00 +12°C° 0.3 mm 8 mps 749 mmHg 79%
    11:00 +12°C° 0.3 mm 8 mps 749 mmHg 78%
    12:00 +11°C° 0.1 mm 8 mps 750 mmHg 78%
    13:00 +10°C° 0.1 mm 7 mps 751 mmHg 78%
    14:00 +9°C° 0.1 mm 7 mps 752 mmHg 78%
    15:00 +8°C° 0 mm 6 mps 753 mmHg 76%
    16:00 +8°C° 0 mm 5 mps 754 mmHg 74%
    17:00 +8°C° 0 mm 4 mps 755 mmHg 72%
    18:00 +8°C° 0 mm 3 mps 756 mmHg 76%
    19:00 +8°C° 0 mm 3 mps 757 mmHg 79%
    20:00 +7°C° 0 mm 2 mps 758 mmHg 83%
    21:00 +7°C° 0.1 mm 3 mps 758 mmHg 84%
    22:00 +7°C° 0.1 mm 3 mps 759 mmHg 85%
    23:00 +7°C° 0.1 mm 3 mps 759 mmHg 86%

    29 September, Saturday

    Time Temperature Precipitation Wind Pressure Humidity
    00:00 +5°C° 0 mm 3 mps 759 mmHg 85%
    01:00 +5°C° 0 mm 4 mps 760 mmHg 84%
    02:00 +4°C° 0 mm 4 mps 760 mmHg 84%
    03:00 +4°C° 0 mm 4 mps 761 mmHg 82%
    04:00 +4°C° 0 mm 4 mps 762 mmHg 81%
    05:00 +4°C° 0 mm 4 mps 762 mmHg 80%
    06:00 +4°C° 0 mm 4 mps 763 mmHg 77%
    07:00 +4°C° 0 mm 4 mps 763 mmHg 74%
    08:00 +5°C° 0 mm 4 mps 764 mmHg 72%
    09:00 +6°C° 0 mm 4 mps 765 mmHg 66%
    10:00 +7°C° 0 mm 4 mps 766 mmHg 60%
    11:00 +10°C° 0 mm 4 mps 766 mmHg 54%
    12:00 +10°C° 0 mm 4 mps 766 mmHg 51%
    13:00 +10°C° 0 mm 3 mps 767 mmHg 48%
    14:00 +11°C° 0 mm 3 mps 767 mmHg 45%
    15:00 +10°C° 0 mm 2 mps 767 mmHg 49%
    16:00 +10°C° 0 mm 2 mps 767 mmHg 52%
    17:00 +10°C° 0 mm 1 mps 768 mmHg 56%
    18:00 +9°C° 0 mm 1 mps 768 mmHg 59%
    19:00 +8°C° 0 mm 1 mps 768 mmHg 62%
    20:00 +6°C° 0 mm 1 mps 769 mmHg 65%
    21:00 +6°C° 0 mm 1 mps 769 mmHg 68%
    22:00 +6°C° 0 mm 1 mps 769 mmHg 71%
    23:00 +4°C° 0 mm 2 mps 769 mmHg 74%
    Show more